Other Public Products
Issued by NWS Charleston, SC

Current Version | Previous Version | Graphics & Text | Print | Product List | Glossary On
Versions: 1 2 3 4 5 6 7 8 9 10 11 12 13 14 15 16 17 18 19 20 21 22 23 24 25 26 27 28 29 30 31 32 33 34 35 36 37 38 39 40 41 42 43 44 45 46 47 48 49 50
000 FPUS82 KCHS 070427 OPUCHS TEST...KCHS/KSAV Gateway Observations...TEST National Weather Service Charleston SC 1100 PM EST TUE DEC 06 2016 NOTE: "fair" indicates few or no clouds below 12,000 feet with no significant weather and/or obstructions to visibility. SCZ050-WAZ558-NCZ071-TXZ119-213-PAZ071-DCZ001-FLZ074-172-MI076- NYZ176-178-MAZ016-IL014-TNZ027-NJZ106-GAZ044-MD014-070500- ...Gateway Observations for Charleston International... CITY SKY/WX TMP DP RH WIND PRES REMARKS Chas Airport MOCLDY 53 51 93 NW10 29.89R Seattle MOCLDY 35 26 69 NE6 30.29R WCI 30 Charlotte PTCLDY 39 38 96 W3 29.89R Dallas DFW CLOUDY 47 35 63 NE9 30.06S Dallas Love CLOUDY 49 37 63 N7 30.08R Philladelphia LGT RAIN 43 40 89 NE15 29.80F Wash National CLOUDY 46 44 93 N10 29.81S Baltimore LGT RAIN 44 43 96 NE10 29.80F FOG Miami CLOUDY 77 74 90 S6 29.99S Detroit MOCLDY 38 35 89 SW14 29.83R WCI 30 Newark CLOUDY 42 38 85 NE13 29.86F Laguardia LGT RAIN 43 38 82 E14 29.88F J F K LGT RAIN 42 38 85 NE16 29.88F Boston Logan CLOUDY 40 32 73 N3 30.00F Ft. Lauderdale MOCLDY 79 75 87 SW6 29.98S Chicago O`Hare CLOUDY 27 19 72 W16G25 29.95R WCI 15 Chicago Midway CLOUDY 29 19 66 W12 29.97R WCI 19 Houston Bush MOCLDY 53 49 86 N7 30.04S Houston Hobby PTCLDY 54 50 86 N7 30.03S Nashville CLOUDY 43 36 76 NW7 30.07R Atlanta DRIZZLE 54 51 90 NW14 29.95R $$ GAZ044-118-TXZ119-213-NCZ071-DCZ001-MDZ014-506-PAZ021-071-NJZ106- NYZ176-178-MAZ106-OHZ011-021-055-MIZ076-KYZ091-ILZ014-INZ047- MNZ060-070500- ...Gateway Observations for Savannah International... CITY SKY/WX TMP DP RH WIND PRES REMARKS Savannah Arpt CLEAR 57 54 89 NW3 29.92R Atlanta DRIZZLE 54 51 90 NW14 29.95R Charlotte PTCLDY 39 38 96 W3 29.89R Dallas DFW CLOUDY 47 35 63 NE9 30.06S Houston Bush MOCLDY 53 49 86 N7 30.04S Wash National CLOUDY 46 44 93 N10 29.81S Wash Dulles DRIZZLE 40 38 93 NW9 29.83R FOG WCI 34 Baltimore LGT RAIN 44 43 96 NE10 29.80F FOG Philadelphia LGT RAIN 43 40 89 NE15 29.80F Newark CLOUDY 42 38 85 NE13 29.86F Laguardia LGT RAIN 43 38 82 E14 29.88F J F K LGT RAIN 42 38 85 NE16 29.88F Boston CLOUDY 40 32 73 N3 30.00F Pittsburg DRIZZLE 43 41 93 SW7 29.79R Akron FOG 36 33 89 W15 29.84R VSB 1 WCI 27 Cleveland CLOUDY 39 35 86 W12 29.86R WCI 32 Cincinnati PTCLDY 35 30 82 NW14 30.00R WCI 26 Columbus N/A 37 36 95 W9 29.94R WCI 30 Detroit MOCLDY 38 35 89 SW14 29.83R WCI 30 Chicago O`Hare CLOUDY 27 19 72 W16G25 29.95R WCI 15 Minneapolis FLURRIES 19 10 68 W18G26 29.83R WCI 4 Indianapolis MOCLDY 33 29 85 W10 30.01R WCI 25 $$

USA.gov is the U.S. government's official web portal to all federal, state and local government web resources and services.